Location: Newark
(43.4100°N, 74.9600°W)
Time: 21:08:43
(UTC+00:00)

ISS - Pass Details

Date: 26 September 2019
Orbit: 411 x 421 km, 51.6° (Epoch: 20 October)

Event Time Altitude Azimuth Distance (km) Brightness Sun altitude
Rises 00:43:55 0° 284° (WNW) 2,343 1.6 -20.8°
Reaches altitude 10° 00:46:21 10° 301° (WNW) 1,481 0.1 -21.2°
Maximum altitude 00:48:56 21° 352° (N) 1,003 -1.6 -21.7°
Enters shadow 00:49:33 20° 8° (N) 1,036 -1.7 -21.8°
